Presure
190 195 195 272 269 257 243 243 239 231 232 234 237 245 259 257 112 129 119 137 224 137 243 214 190 124 133 116 115 222 121 126 126 133 132 127 125 125 134 135 201 196 195 193
198 188 195 219 269 248 230 228 232 229 225 229 236 244 256 206 181 163 138 149 221 219 212 136 203 149 214 125 123 126 125 125 133 140 150 152 154 133 131 149 209 199 208 209
202 188 207 207 247 254 240 227 227 237 244 234 229 236 235 248 183 228 227 219 218 131 173 196 118 129 130 130 131 121 156 130 129 218 162 178 163 202 201 197 193 211 208 198
180 189 198 217 228 242 252 239 231 228 225 223 231 229 235 234 245 223 224 222 216 122 214 214 127 123 124 167 125 132 134 167 200 189 202 162 200 200 202 181 194 211 208 199
186 191 187 207 216 234 225 228 239 232 230 218 221 229 234 233 242 246 232 224 136 201 208 205 157 135 153 138 203 131 200 202 133 126 195 199 187 199 202 207 212 210 191 193
181 196 184 207 208 216 241 217 233 229 234 232 223 221 221 227 232 236 237 226 235 220 214 207 209 183 201 202 201 202 150 155 200 195 198 197 192 190 210 206 196 209 209 206
183 198 200 202 199 212 228 224 220 220 227 218 222 215 218 224 230 223 227 232 236 237 212 213 215 211 206 204 202 206 208 207 201 215 207 202 215 213 207 208 203 200 208 204
195 201 179 206 190 211 219 237 211 214 221 219 216 220 213 216 217 219 220 224 214 215 212 213 214 218 213 219 218 217 220 214 213 210 210 206 195 199 211 203 204 204 203 203
193 189 187 172 207 199 220 261 222 216 223 217 218 214 214 206 207 214 213 214 220 224 225 212 210 207 204 204 206 211 216 220 211 204 205 212 212 206 203 203 202 196 197 205
182 188 201 190 203 215 214 220 237 215 219 217 217 213 214 206 206 211 210 212 214 219 222 221 218 218 221 218 215 214 213 210 207 207 208 208 203 202 202 196 194 213 195 202
185 196 200 197 194 210 214 216 229 234 206 222 208 210 214 214 210 206 208 208 208 210 212 213 215 217 215 216 212 209 207 203 205 199 202 204 199 201 196 206 210 199 196 197
195 196 197 208 179 208 216 209 217 252 222 204 227 223 222 219 215 215 216 218 219 214 213 215 217 215 216 207 201 203 208 208 210 210 203 201 201 225 209 198 202 199 199 201
188 193 195 195 188 203 208 214 211 217 252 222 208 212 214 201 225 195 197 195 198 205 206 209 212 214 214 218 213 206 203 203 199 201 207 226 204 202 203 198 197 200 204 194
197 198 189 203 208 187 200 222 222 207 221 268 228 208 210 201 210 205 203 202 211 210 207 220 222 206 211 207 198 199 200 209 231 227 214 199 196 188 198 200 195 189 191 190
194 172 200 200 204 188 203 212 218 202 211 220 268 256 210 215 206 210 203 200 205 210 214 211 210 214 209 203 209 210 202 206 221 206 205 205 203 202 200 204 201 200 204 199
197 200 197 192 197 203 194 210 214 217 204 207 221 278 271 214 214 210 211 210 200 201 203 207 209 209 210 206 201 203 205 206 205 201 195 195 200 201 198 195 201 198 198 201
198 195 206 187 199 207 188 205 212 216 209 204 219 226 273 256 220 209 211 203 205 209 217 214 203 208 210 208 205 202 203 201 197 198 202 206 207 202 202 200 198 202 195 186
194 203 208 206 209 199 201 180 206 213 215 210 208 222 224 273 247 225 211 204 203 201 213 212 208 204 208 206 210 211 211 210 211 210 206 203 202 200 200 203 203 197 208 200
217 208 214 207 199 189 201 208 212 210 211 233 207 214 229 222 267 244 228 217 207 202 205 211 213 214 209 210 209 207 205 205 204 203 203 203 204 203 203 200 208 206 208 198
213 209 205 200 200 188 203 206 218 199 212 190 208 216 209 233 255 191 246 235 224 213 208 203 203 207 208 213 210 196 194 197 202 205 210 210 208 204 195 212 201 208 201 192
204 198 200 202 202 197 199 205 216 195 206 222 209 219 211 198 209 263 285 256 224 214 218 214 210 202 202 203 214 210 204 205 204 194 208 210 207 205 215 213 207 199 196 212
201 203 197 205 195 194 198 208 204 211 205 224 224 213 208 226 222 247 252 284 265 246 233 224 216 210 206 205 205 203 205 205 205 205 207 208 203 209 210 199 201 212 216 217
189 205 202 198 202 195 200 175 200 205 174 211 221 220 213 232 223 232 259 249 281 268 248 238 231 224 217 217 214 211 205 205 205 204 205 205 215 212 202 204 212 219 208 215
193 185 195 195 203 198 200 174 152 155 163 176 227 234 220 223 222 211 254 235 294 280 273 264 245 235 229 222 210 214 215 216 216 215 216 220 217 215 222 209 216 212 227 231
198 197 199 204 204 194 200 211 219 219 169 164 228 229 216 233 212 199 240 199 219 208 235 237 249 261 260 249 239 227 222 225 226 226 227 225 225 224 194 230 231 233 239 231
202 203 210 207 220 217 214 220 172 227 162 231 222 215 163 163 203 225 247 243 259 197 211 225 230 240 263 259 255 259 255 248 244 240 238 238 239 220 235 237 237 232 232 249
Wind_Speed
34 36 36 31 18 14 11 10 8 3 1 4 9 11 11 22 17 31 21 30 34 34 30 37 33 33 42 39 42 34 52 55 56 58 60 58 61 62 69 72 58 64 68 72
39 30 34 38 20 16 16 11 6 4 6 9 7 9 10 17 24 33 36 30 33 35 33 38 34 41 32 47 47 53 54 55 58 61 56 60 62 66 66 62 59 64 67 69
41 30 39 35 38 17 15 13 10 9 4 9 9 8 12 17 22 32 32 31 31 33 28 29 36 48 48 50 51 51 47 57 59 42 52 53 61 51 52 55 59 65 68 66
26 33 36 41 41 32 18 17 13 8 7 11 12 10 12 14 21 31 33 34 31 30 31 32 44 42 45 42 49 53 56 50 41 44 45 55 52 56 56 59 65 67 65 64
28 31 31 38 37 33 28 24 16 12 10 14 15 13 11 14 15 26 34 31 35 31 33 32 42 46 47 49 36 50 41 41 54 57 48 52 54 61 62 62 64 65 65 67
26 35 26 36 32 34 27 26 14 10 9 8 13 13 12 14 12 17 19 28 37 39 35 34 37 41 39 41 40 43 48 54 49 48 50 52 55 61 62 62 63 64 66 68
25 34 36 33 28 33 34 21 23 16 9 7 10 14 11 11 12 15 15 16 19 27 33 41 45 46 46 47 48 50 51 54 54 55 53 61 61 64 65 65 65 66 66 68
29 35 27 35 25 31 32 21 23 22 15 14 16 14 10 18 16 17 17 17 19 20 24 26 27 29 34 38 45 47 47 47 51 55 55 56 57 62 60 60 63 66 68 70
28 25 30 21 34 25 30 21 19 23 19 23 20 20 12 17 22 23 23 23 24 25 29 30 31 34 37 41 43 44 46 46 48 51 53 57 58 59 57 60 63 67 70 70
25 30 35 28 32 35 28 25 20 19 25 24 24 26 23 17 23 25 27 29 30 28 28 30 33 35 38 40 42 43 44 46 50 52 53 53 55 57 58 63 67 65 72 72
26 39 34 28 28 32 29 26 24 20 21 26 28 30 29 27 25 25 28 31 32 35 36 35 35 37 38 38 40 43 43 49 53 54 54 56 58 59 62 63 65 70 73 73
36 39 34 37 36 28 28 28 26 17 21 23 29 33 27 25 24 25 27 31 35 38 40 40 40 39 39 36 38 46 48 53 54 56 54 58 59 52 61 66 69 69 72 72
28 40 33 27 33 23 29 26 28 26 20 28 26 36 26 31 26 26 25 27 31 34 35 38 40 39 39 40 43 49 49 54 55 56 56 55 58 61 62 62 69 68 67 72
45 48 36 38 30 30 25 30 24 28 26 23 31 33 33 36 35 33 32 32 33 33 35 40 39 36 39 41 45 48 51 54 51 55 53 57 58 66 66 63 66 73 73 75
40 40 44 36 33 32 23 29 24 29 28 24 29 37 34 35 36 35 35 36 35 34 36 39 40 40 39 41 45 48 53 56 53 53 56 57 60 62 64 69 66 70 72 76
51 47 35 35 34 28 30 26 26 23 31 29 27 33 38 37 39 36 34 37 38 38 35 38 40 40 41 43 48 51 52 54 53 56 61 64 64 64 68 72 74 74 76 79
46 39 50 40 38 34 43 26 25 25 29 32 31 33 36 39 39 39 39 41 41 40 41 40 41 41 43 45 49 51 53 56 60 63 62 63 64 68 70 73 76 77 79 77
42 50 49 44 43 37 38 33 26 25 29 29 32 33 34 39 41 44 44 42 44 45 45 43 44 44 46 47 50 52 55 57 59 61 63 65 68 71 73 76 78 79 83 84
52 45 42 39 39 41 47 35 32 22 37 34 34 31 34 36 39 46 47 48 47 49 49 46 47 49 51 52 54 56 58 61 63 65 67 69 72 73 76 78 80 81 82 85
41 41 41 40 39 41 49 41 38 31 44 36 33 34 35 38 36 39 47 51 51 51 51 52 52 52 54 55 57 61 62 63 65 68 70 72 74 76 74 80 78 82 84 87
44 46 43 41 39 42 48 41 40 36 38 49 40 38 39 39 41 40 43 50 49 51 55 55 56 56 58 59 59 61 63 65 67 69 72 74 77 77 81 82 82 83 87 94
50 51 46 46 39 43 46 46 43 42 44 53 48 44 38 44 46 45 42 45 51 56 57 59 60 61 62 64 65 67 68 69 71 73 75 77 76 80 80 79 83 90 94 96
50 54 53 43 44 43 49 38 44 48 35 48 50 43 41 46 43 49 43 42 47 50 58 62 63 64 66 66 68 71 72 73 75 76 78 77 83 82 78 84 90 96 91 98
50 44 48 42 48 48 52 40 24 31 33 41 57 58 48 46 42 45 46 42 45 47 50 56 64 67 70 72 70 73 76 78 81 83 83 86 87 86 91 87 94 92 105 108
55 54 52 52 56 51 55 61 60 56 41 40 58 59 51 54 46 46 55 53 46 52 48 50 50 58 66 73 78 78 80 83 85 87 89 89 91 93 82 102 104 106 106 107
57 58 64 60 65 64 63 65 38 58 34 58 55 50 39 43 51 56 63 57 60 59 59 60 63 65 66 68 72 77 83 86 89 90 92 95 97 90 98 101 102 104 106 110
Wind_Direction
322 332 336 342 356 16 19 18 24 348 255 218 238 232 200 194 217 245 249 238 222 251 228 216 231 262 244 270 274 229 275 268 272 272 274 281 284 289 284 286 267 270 269 275
327 326 333 354 344 340 333 348 348 288 264 249 235 234 221 230 228 233 243 245 228 232 239 242 226 250 233 263 271 267 274 277 275 275 274 275 277 285 289 288 275 277 283 286
328 324 336 340 356 342 328 327 327 329 296 267 250 238 229 219 232 214 223 229 232 253 254 256 276 261 262 264 265 279 268 275 279 255 273 266 274 270 273 275 279 283 282 284
300 322 330 344 358 347 339 327 328 321 306 288 275 257 242 236 225 220 222 229 240 261 240 246 268 273 276 260 276 273 273 270 258 270 269 278 278 278 282 278 286 281 280 286
310 319 320 336 355 350 346 340 332 323 300 289 284 282 274 250 231 224 229 237 266 250 245 257 262 269 268 274 266 277 271 275 284 287 274 275 278 281 284 284 281 281 286 288
297 319 308 328 344 352 334 332 329 332 321 296 278 279 282 273 258 244 242 233 238 240 248 254 254 261 263 266 269 270 280 280 274 276 278 280 280 282 282 284 285 286 286 286
295 318 319 320 329 347 346 324 319 309 314 280 279 261 262 265 257 249 252 250 242 244 247 253 255 258 260 264 268 270 270 270 273 275 273 279 278 278 281 283 286 288 287 287
309 317 286 321 309 341 347 322 312 311 287 279 274 271 266 274 268 267 264 264 252 241 237 242 252 256 258 262 263 265 269 271 271 271 273 274 278 280 282 283 285 287 289 288
302 292 294 264 324 320 341 302 305 303 285 282 273 277 259 275 284 281 279 273 262 256 254 256 257 257 259 260 263 267 270 270 269 272 274 274 276 280 285 286 286 287 290 290
275 288 308 294 316 328 329 336 298 310 295 281 282 281 279 264 274 284 286 288 287 277 269 265 265 266 268 270 275 277 279 280 277 276 277 279 281 284 285 287 289 284 292 291
274 300 302 301 301 319 323 328 325 291 291 278 280 279 279 281 280 283 286 286 285 284 281 279 278 276 276 276 277 279 278 275 276 279 281 283 285 287 288 284 283 289 289 290
287 294 295 301 277 320 320 316 318 310 280 283 266 265 266 275 272 269 269 269 266 271 278 280 280 282 282 283 280 276 274 273 276 278 281 281 284 277 278 286 285 287 290 292
271 288 287 285 276 304 318 309 307 313 286 274 276 273 271 275 268 268 268 273 279 279 281 281 279 280 279 275 269 272 277 277 279 280 278 275 280 282 282 285 286 286 288 290
280 285 279 294 294 275 300 311 311 300 307 288 270 275 273 273 269 274 270 270 270 272 278 277 276 275 271 270 277 277 274 273 264 270 277 280 280 281 280 280 282 289 291 292
273 261 283 286 288 269 295 300 310 293 296 299 281 271 271 275 273 271 272 277 277 277 278 279 279 276 273 274 274 272 276 277 275 280 279 280 280 283 286 289 289 290 291 293
270 278 276 273 279 286 279 292 307 299 289 291 301 280 271 277 277 279 279 273 276 279 278 274 276 279 278 275 277 279 279 280 282 284 285 287 288 289 289 290 292 295 300 301
267 267 280 260 278 286 267 282 295 301 287 288 301 306 282 274 279 281 278 277 280 280 274 274 276 276 276 277 279 281 281 282 284 284 284 285 286 289 292 294 298 298 298 301
259 272 274 275 277 275 275 267 281 294 295 284 290 308 305 279 274 276 277 278 280 282 277 277 278 279 278 279 279 279 279 280 281 284 286 290 291 292 294 295 297 299 298 300
264 265 266 266 266 264 275 281 286 288 290 308 281 299 310 296 278 270 273 275 278 280 281 280 281 280 282 283 282 284 285 287 288 289 290 290 291 293 295 296 296 298 300 299
255 256 255 259 265 260 274 278 292 284 295 274 283 294 288 312 297 284 268 267 271 274 276 279 280 280 280 279 280 286 288 288 288 288 288 289 289 291 296 294 299 299 299 299
251 250 253 255 260 265 270 279 293 268 289 303 292 296 294 293 296 301 285 269 274 275 273 275 276 279 280 281 281 281 283 284 285 290 288 289 291 295 293 296 299 297 298 301
248 252 251 259 255 264 271 283 281 292 283 299 296 296 292 307 306 306 298 293 276 270 270 272 275 277 278 280 281 283 284 286 288 289 291 291 295 295 297 299 298 300 301 304
243 253 254 256 264 266 273 273 274 284 279 293 293 294 304 305 307 310 303 298 288 279 273 272 274 276 277 279 280 282 283 285 287 288 290 296 293 297 298 299 300 301 301 304
247 254 259 263 272 269 272 264 262 268 280 286 291 295 302 302 299 294 305 301 294 287 284 280 276 276 277 280 286 284 283 283 284 287 291 293 295 297 298 297 300 301 303 304
250 255 261 266 269 271 267 277 282 284 283 287 290 293 301 301 288 300 308 295 285 291 294 294 299 294 288 282 279 281 283 285 287 288 290 293 296 298 300 300 301 302 303 304
253 257 264 265 270 271 272 276 274 281 283 284 288 293 293 296 277 308 306 306 297 287 290 291 292 294 297 288 285 285 284 284 286 289 292 294 297 299 299 300 301 302 304 305